Regional Weather Roundup
Issued by NWS Cleveland, OH

Current Version | Previous Version | Text Only | Print | Product List | Glossary On
Versions: 1 2 3 4 5 6 7 8 9 10 11 12 13 14 15 16 17 18 19 20 21 22 23 24 25 26 27 28 29 30 31 32 33 34 35 36 37 38 39 40 41 42 43 44 45 46 47 48 49 50
000 ASUS41 KCLE 150502 RWRCLE OHIO REGIONAL WEATHER ROUNDUP NATIONAL WEATHER SERVICE CLEVELAND, OH 100 AM EDT SUN SEP 15 2019 NOTE: "FAIR" INDICATES FEW OR NO CLOUDS BELOW 12,000 FEET WITH NO SIGNIFICANT WEATHER AND/OR OBSTRUCTIONS TO VISIBILITY. OHZ001>008-015>018-024>027-034-035-043-044-150600- NORTHWEST OHIO CITY SKY/WX TMP DP RH WIND PRES REMARKS DEFIANCE FAIR 65 59 81 SW5 30.20S FINDLAY FAIR 62 57 83 S7 30.20F TOLEDO EXPRESS FAIR 62 58 86 CALM 30.18F TOLEDO EXEC FAIR 63 58 83 S5 30.20F LIMA FAIR 63 58 83 S8 30.22F $$ OHZ009>014-019>023-028>033-038-089-150600- NORTHEAST OHIO CITY SKY/WX TMP DP RH WIND PRES REMARKS CLE-HOPKINS FAIR 64 56 75 S5 30.23S CLE-LAKEFRONT FAIR 66 56 70 S9 30.19F CUY CO. ARPT FAIR 58 56 92 CALM 30.22F LORAIN-ELYRIA FAIR 59 53 80 S3 30.22S ASHTABULA FAIR 57 57 100 CALM 30.22S AKRON-CANTON FAIR 62 56 80 W5 30.23F WOOSTER FAIR 54 53 97 CALM 30.24S MANSFIELD FAIR 60 56 86 S5 30.24S YOUNGSTOWN FAIR 55 53 93 CALM 30.22S $$ OHZ042-051>053-060>062-070>072-077>081-150600- SOUTHWEST OHIO CITY SKY/WX TMP DP RH WIND PRES REMARKS CINC-COVINGTON FAIR 64 55 72 CALM 30.23S CINC-LUNKEN FAIR 61 59 93 CALM 30.23F HAMILTON FAIR 60 58 92 CALM 30.24S DAYTON FAIR 66 55 67 SW3 30.24F WRIGHT-PAT AFB FAIR 62 56 81 CALM 30.23S DAYTON GENERAL FAIR 65 55 70 CALM 30.23S WILMINGTON FAIR 61 55 81 CALM 30.24S $$ OHZ036-037-039>041-045>050-054>059-063>069-073>076-082>088-150600- CENTRAL AND SOUTHEAST OHIO CITY SKY/WX TMP DP RH WIND PRES REMARKS COLUMBUS FAIR 62 54 74 CALM 30.23S OSU AIRPORT FAIR 60 57 89 CALM 30.23S BOLTON FIELD FAIR 56 54 91 W3 30.24S RICKENBACK AFB FAIR 59 54 83 CALM 30.23S NEWARK FAIR 54 51 90 CALM 30.23S MARION FAIR 60 55 83 S5 30.23F LANCASTER FAIR 54 52 93 CALM 30.24S ZANESVILLE FAIR 57 54 89 CALM 30.23S NEW PHILLY NOT AVBL $$

USA.gov is the U.S. government's official web portal to all federal, state and local government web resources and services.